| time (UTC) | temp F | wind direction | speed MPH | gust MPH | rain 1hr in | rain 24hr in | rain mn in | humidity % | barometer mb |
| 20260906125555 | 69 | 48 | 2.0 | 5.0 | 0.00 | 0.00 | 0.00 | 88 | 1014.5 |
| 20260906125055 | 69 | 51 | 2.0 | 5.0 | 0.00 | 0.00 | 0.00 | 89 | 1014.5 |
| 20260906124600 | 69 | 16 | 2.0 | 5.0 | 0.00 | 0.00 | 0.00 | 89 | 1014.5 |
| 20260906124057 | 68 | 58 | 2.0 | 5.0 | 0.00 | 0.00 | 0.00 | 90 | 1014.5 |
| 20260906123554 | 68 | 13 | 2.0 | 5.0 | 0.00 | 0.00 | 0.00 | 91 | 1014.5 |
| 20260906123103 | 68 | 62 | 1.0 | 4.0 | 0.00 | 0.00 | 0.00 | 92 | 1014.5 |
| 20260906122554 | 67 | 73 | 2.0 | 3.0 | 0.00 | 0.00 | 0.00 | 92 | 1014.4 |
| 20260906122055 | 66 | 52 | 0.0 | 2.0 | 0.00 | 0.00 | 0.00 | 93 | 1014.4 |
| 20260906121607 | 66 | 6 | 0.0 | 1.0 | 0.00 | 0.00 | 0.00 | 94 | 1014.4 |
| 20260906121054 | 65 | 0 | 0.0 | 0.0 | 0.00 | 0.00 | 0.00 | 95 | 1014.4 |
| 20260906120554 | 65 | 0 | 0.0 | 0.0 | 0.00 | 0.00 | 0.00 | 95 | 1014.3 |
| 20260906120108 | 64 | 0 | 0.0 | 0.0 | 0.00 | 0.00 | 0.00 | 96 | 1014.2 |
| 20260906115555 | 64 | 0 | 0.0 | 0.0 | 0.00 | 0.00 | 0.00 | 96 | 1014.2 |
| 20260906115054 | 63 | 0 | 0.0 | 0.0 | 0.00 | 0.00 | 0.00 | 96 | 1014.1 |
| 20260906114604 | 63 | 0 | 0.0 | 0.0 | 0.00 | 0.00 | 0.00 | 96 | 1014.1 |
| 20260906114055 | 63 | 0 | 0.0 | 0.0 | 0.00 | 0.00 | 0.00 | 95 | 1014.1 |
| 20260906113554 | 63 | 0 | 0.0 | 0.0 | 0.00 | 0.00 | 0.00 | 95 | 1014.1 |
| 20260906113100 | 63 | 0 | 0.0 | 0.0 | 0.00 | 0.00 | 0.00 | 96 | 1014.1 |
| 20260906112554 | 63 | 0 | 0.0 | 0.0 | 0.00 | 0.00 | 0.00 | 96 | 1014.0 |
| 20260906112054 | 63 | 0 | 0.0 | 0.0 | 0.00 | 0.00 | 0.00 | 96 | 1013.9 |
| 20260906111607 | 63 | 0 | 0.0 | 0.0 | 0.00 | 0.00 | 0.00 | 96 | 1013.7 |
| 20260906111054 | 63 | 0 | 0.0 | 0.0 | 0.00 | 0.00 | 0.00 | 95 | 1013.7 |
| 20260906110555 | 63 | 0 | 0.0 | 0.0 | 0.00 | 0.00 | 0.00 | 95 | 1013.6 |
| 20260906110105 | 62 | 0 | 0.0 | 0.0 | 0.00 | 0.00 | 0.00 | 95 | 1013.7 |
| 20260906105554 | 62 | 0 | 0.0 | 0.0 | 0.00 | 0.00 | 0.00 | 95 | 1013.6 |
| 20260906105054 | 62 | 0 | 0.0 | 0.0 | 0.00 | 0.00 | 0.00 | 95 | 1013.5 |
| 20260906104602 | 62 | 0 | 0.0 | 0.0 | 0.00 | 0.00 | 0.00 | 95 | 1013.5 |
| 20260906104054 | 63 | 0 | 0.0 | 0.0 | 0.00 | 0.00 | 0.00 | 95 | 1013.3 |
| 20260906103555 | 63 | 0 | 0.0 | 0.0 | 0.00 | 0.00 | 0.00 | 95 | 1013.3 |
| 20260906103109 | 63 | 0 | 0.0 | 0.0 | 0.00 | 0.00 | 0.00 | 95 | 1013.1 |
| 20260906102554 | 63 | 0 | 0.0 | 0.0 | 0.00 | 0.00 | 0.00 | 95 | 1013.1 |
| 20260906102057 | 63 | 0 | 0.0 | 0.0 | 0.00 | 0.00 | 0.00 | 95 | 1013.0 |
| 20260906101603 | 63 | 0 | 0.0 | 0.0 | 0.00 | 0.00 | 0.00 | 95 | 1013.0 |
| 20260906101054 | 63 | 0 | 0.0 | 0.0 | 0.00 | 0.00 | 0.00 | 95 | 1013.0 |
| 20260906100555 | 63 | 0 | 0.0 | 0.0 | 0.00 | 0.00 | 0.00 | 95 | 1012.9 |
| 20260906100105 | 63 | 0 | 0.0 | 0.0 | 0.00 | 0.00 | 0.00 | 95 | 1012.9 |
| 20260906095554 | 63 | 0 | 0.0 | 0.0 | 0.00 | 0.00 | 0.00 | 95 | 1012.8 |
| 20260906095056 | 63 | 0 | 0.0 | 0.0 | 0.00 | 0.00 | 0.00 | 95 | 1012.7 |
| 20260906094556 | 63 | 0 | 0.0 | 0.0 | 0.00 | 0.00 | 0.00 | 95 | 1012.7 |
| 20260906094057 | 63 | 0 | 0.0 | 0.0 | 0.00 | 0.00 | 0.00 | 95 | 1012.7 |
| 20260906093554 | 63 | 0 | 0.0 | 0.0 | 0.00 | 0.00 | 0.00 | 95 | 1012.5 |
| 20260906093105 | 63 | 0 | 0.0 | 0.0 | 0.00 | 0.00 | 0.00 | 95 | 1012.5 |
| 20260906092554 | 63 | 0 | 0.0 | 0.0 | 0.00 | 0.00 | 0.00 | 95 | 1012.4 |
| 20260906092055 | 63 | 0 | 0.0 | 0.0 | 0.00 | 0.00 | 0.00 | 95 | 1012.4 |
| 20260906091606 | 63 | 0 | 0.0 | 0.0 | 0.00 | 0.00 | 0.00 | 95 | 1012.4 |
| 20260906091055 | 63 | 0 | 0.0 | 0.0 | 0.00 | 0.00 | 0.00 | 94 | 1012.4 |
| 20260906090557 | 63 | 0 | 0.0 | 0.0 | 0.00 | 0.00 | 0.00 | 94 | 1012.4 |
| 20260906090118 | 63 | 0 | 0.0 | 0.0 | 0.00 | 0.00 | 0.00 | 94 | 1012.4 |
| 20260906085553 | 63 | 0 | 0.0 | 0.0 | 0.00 | 0.00 | 0.00 | 94 | 1012.3 |
| 20260906085054 | 63 | 0 | 0.0 | 0.0 | 0.00 | 0.00 | 0.00 | 94 | 1012.2 |
| 20260906084600 | 64 | 0 | 0.0 | 0.0 | 0.00 | 0.00 | 0.00 | 94 | 1012.3 |
| 20260906084054 | 64 | 0 | 0.0 | 0.0 | 0.00 | 0.00 | 0.00 | 94 | 1012.3 |
| 20260906083553 | 64 | 0 | 0.0 | 0.0 | 0.00 | 0.00 | 0.00 | 94 | 1012.2 |
| 20260906083116 | 64 | 0 | 0.0 | 0.0 | 0.00 | 0.00 | 0.00 | 94 | 1012.1 |
| 20260906082553 | 64 | 0 | 0.0 | 0.0 | 0.00 | 0.00 | 0.00 | 94 | 1012.1 |
| 20260906082054 | 64 | 0 | 0.0 | 0.0 | 0.00 | 0.00 | 0.00 | 94 | 1011.9 |
| 20260906081606 | 64 | 0 | 0.0 | 0.0 | 0.00 | 0.00 | 0.00 | 94 | 1011.9 |
| 20260906081054 | 64 | 0 | 0.0 | 0.0 | 0.00 | 0.00 | 0.00 | 94 | 1011.8 |
| 20260906080554 | 64 | 0 | 0.0 | 0.0 | 0.00 | 0.00 | 0.00 | 94 | 1011.8 |
| 20260906080127 | 64 | 0 | 0.0 | 0.0 | 0.00 | 0.00 | 0.00 | 94 | 1011.8 |
| 20260906075555 | 64 | 0 | 0.0 | 0.0 | 0.00 | 0.00 | 0.00 | 94 | 1011.9 |
| 20260906075054 | 64 | 0 | 0.0 | 0.0 | 0.00 | 0.00 | 0.00 | 94 | 1011.9 |
| 20260906074609 | 64 | 0 | 0.0 | 0.0 | 0.00 | 0.00 | 0.00 | 94 | 1011.8 |
| 20260906074053 | 64 | 0 | 0.0 | 0.0 | 0.00 | 0.00 | 0.00 | 93 | 1011.9 |
| 20260906073557 | 64 | 0 | 0.0 | 0.0 | 0.00 | 0.00 | 0.00 | 94 | 1011.9 |
| 20260906073110 | 64 | 0 | 0.0 | 0.0 | 0.00 | 0.00 | 0.00 | 93 | 1011.8 |
| 20260906072555 | 64 | 0 | 0.0 | 0.0 | 0.00 | 0.00 | 0.00 | 93 | 1011.8 |
| 20260906072055 | 65 | 0 | 0.0 | 0.0 | 0.00 | 0.00 | 0.00 | 94 | 1011.7 |
| 20260906071602 | 65 | 0 | 0.0 | 0.0 | 0.00 | 0.00 | 0.00 | 94 | 1011.7 |
| 20260906071053 | 65 | 0 | 0.0 | 0.0 | 0.00 | 0.00 | 0.00 | 93 | 1011.6 |
| 20260906070553 | 65 | 0 | 0.0 | 0.0 | 0.00 | 0.00 | 0.00 | 93 | 1011.7 |
| 20260906070111 | 65 | 0 | 0.0 | 0.0 | 0.00 | 0.00 | 0.00 | 93 | 1011.7 |
| 20260906065556 | 65 | 0 | 0.0 | 0.0 | 0.00 | 0.00 | 0.00 | 93 | 1011.6 |
| 20260906065055 | 65 | 0 | 0.0 | 0.0 | 0.00 | 0.00 | 0.00 | 93 | 1011.7 |
| 20260906064559 | 65 | 0 | 0.0 | 0.0 | 0.00 | 0.00 | 0.00 | 93 | 1011.7 |
| 20260906064055 | 65 | 0 | 0.0 | 0.0 | 0.00 | 0.00 | 0.00 | 93 | 1011.6 |
| 20260906063553 | 65 | 0 | 0.0 | 0.0 | 0.00 | 0.00 | 0.00 | 93 | 1011.6 |
| 20260906063103 | 65 | 0 | 0.0 | 0.0 | 0.00 | 0.00 | 0.00 | 92 | 1011.6 |
| 20260906062553 | 65 | 0 | 0.0 | 0.0 | 0.00 | 0.00 | 0.00 | 93 | 1011.7 |
| 20260906062054 | 65 | 0 | 0.0 | 0.0 | 0.00 | 0.00 | 0.00 | 92 | 1011.7 |
| 20260906061606 | 65 | 0 | 0.0 | 0.0 | 0.00 | 0.00 | 0.00 | 92 | 1011.7 |
| 20260906061057 | 65 | 0 | 0.0 | 0.0 | 0.00 | 0.00 | 0.00 | 92 | 1011.9 |
| 20260906060555 | 66 | 0 | 0.0 | 0.0 | 0.00 | 0.00 | 0.00 | 92 | 1011.8 |
| 20260906060106 | 66 | 0 | 0.0 | 0.0 | 0.00 | 0.00 | 0.00 | 92 | 1011.8 |
| 20260906055554 | 66 | 0 | 0.0 | 0.0 | 0.00 | 0.00 | 0.00 | 92 | 1011.9 |
| 20260906055054 | 66 | 0 | 0.0 | 0.0 | 0.00 | 0.00 | 0.00 | 92 | 1012.0 |
| 20260906054620 | 66 | 0 | 0.0 | 0.0 | 0.00 | 0.00 | 0.00 | 92 | 1012.0 |
| 20260906054058 | 66 | 0 | 0.0 | 0.0 | 0.00 | 0.00 | 0.00 | 92 | 1011.9 |
| 20260906053553 | 66 | 0 | 0.0 | 0.0 | 0.00 | 0.00 | 0.00 | 91 | 1012.0 |
| 20260906053059 | 66 | 0 | 0.0 | 0.0 | 0.00 | 0.00 | 0.00 | 91 | 1012.0 |
| 20260906052556 | 66 | 0 | 0.0 | 0.0 | 0.00 | 0.00 | 0.00 | 91 | 1012.1 |
| 20260906052055 | 66 | 0 | 0.0 | 0.0 | 0.00 | 0.00 | 0.00 | 92 | 1012.1 |
| 20260906051607 | 66 | 0 | 0.0 | 0.0 | 0.00 | 0.00 | 0.00 | 92 | 1012.1 |
| 20260906051053 | 66 | 0 | 0.0 | 0.0 | 0.00 | 0.00 | 0.00 | 92 | 1012.1 |
| 20260906050557 | 66 | 0 | 0.0 | 0.0 | 0.00 | 0.00 | 0.00 | 92 | 1012.2 |
| 20260906050114 | 66 | 0 | 0.0 | 0.0 | 0.00 | 0.00 | 0.00 | 92 | 1012.2 |
| 20260906045557 | 66 | 0 | 0.0 | 0.0 | 0.00 | 0.01 | 0.00 | 93 | 1012.2 |
| 20260906045055 | 66 | 0 | 0.0 | 0.0 | 0.00 | 0.01 | 0.00 | 93 | 1012.1 |
| 20260906044606 | 66 | 0 | 0.0 | 0.0 | 0.00 | 0.01 | 0.00 | 93 | 1012.3 |
| 20260906044058 | 66 | 0 | 0.0 | 0.0 | 0.00 | 0.01 | 0.00 | 93 | 1012.3 |
| 20260906043553 | 66 | 0 | 0.0 | 0.0 | 0.00 | 0.01 | 0.00 | 93 | 1012.3 |
| 20260906043104 | 66 | 0 | 0.0 | 0.0 | 0.00 | 0.01 | 0.00 | 93 | 1012.4 |
| 20260906042555 | 66 | 0 | 0.0 | 0.0 | 0.00 | 0.01 | 0.00 | 93 | 1012.4 |
| 20260906042053 | 66 | 0 | 0.0 | 0.0 | 0.00 | 0.01 | 0.00 | 93 | 1012.4 |
| 20260906041606 | 66 | 0 | 0.0 | 0.0 | 0.00 | 0.01 | 0.00 | 93 | 1012.4 |
| 20260906041052 | 67 | 0 | 0.0 | 0.0 | 0.00 | 0.01 | 0.00 | 93 | 1012.4 |
| 20260906040556 | 67 | 0 | 0.0 | 0.0 | 0.00 | 0.01 | 0.00 | 93 | 1012.4 |
| 20260906040114 | 67 | 0 | 0.0 | 0.0 | 0.00 | 0.01 | 0.00 | 93 | 1012.4 |
| 20260906035554 | 67 | 0 | 0.0 | 0.0 | 0.00 | 0.01 | 0.01 | 93 | 1012.5 |
| 20260906035054 | 67 | 0 | 0.0 | 0.0 | 0.00 | 0.01 | 0.01 | 93 | 1012.4 |
| 20260906034629 | 67 | 0 | 0.0 | 0.0 | 0.00 | 0.01 | 0.01 | 92 | 1012.5 |
| 20260906034055 | 67 | 0 | 0.0 | 0.0 | 0.00 | 0.01 | 0.01 | 93 | 1012.5 |
| 20260906033553 | 67 | 0 | 0.0 | 0.0 | 0.00 | 0.01 | 0.01 | 93 | 1012.5 |
| 20260906033102 | 67 | 0 | 0.0 | 0.0 | 0.00 | 0.01 | 0.01 | 93 | 1012.7 |
| 20260906032553 | 67 | 0 | 0.0 | 0.0 | 0.00 | 0.01 | 0.01 | 93 | 1012.7 |
| 20260906032055 | 68 | 0 | 0.0 | 0.0 | 0.00 | 0.01 | 0.01 | 92 | 1012.5 |
| 20260906031605 | 68 | 0 | 0.0 | 0.0 | 0.00 | 0.01 | 0.01 | 92 | 1012.5 |
| 20260906031055 | 68 | 0 | 0.0 | 0.0 | 0.00 | 0.01 | 0.01 | 92 | 1012.5 |
| 20260906030553 | 68 | 0 | 0.0 | 0.0 | 0.00 | 0.01 | 0.01 | 92 | 1012.4 |
| 20260906025553 | 68 | 0 | 0.0 | 0.0 | 0.00 | 0.01 | 0.01 | 91 | 1012.4 |
| 20260906025057 | 68 | 0 | 0.0 | 0.0 | 0.00 | 0.01 | 0.01 | 91 | 1012.5 |
| 20260906024609 | 68 | 0 | 0.0 | 0.0 | 0.00 | 0.01 | 0.01 | 91 | 1012.5 |
| 20260906024053 | 68 | 0 | 0.0 | 0.0 | 0.00 | 0.01 | 0.01 | 91 | 1012.5 |
| 20260906023554 | 68 | 0 | 0.0 | 0.0 | 0.00 | 0.01 | 0.01 | 90 | 1012.4 |
| 20260906023105 | 69 | 0 | 0.0 | 0.0 | 0.00 | 0.01 | 0.01 | 91 | 1012.3 |
| 20260906022556 | 69 | 0 | 0.0 | 0.0 | 0.00 | 0.01 | 0.01 | 91 | 1012.4 |
| 20260906022056 | 69 | 0 | 0.0 | 0.0 | 0.00 | 0.01 | 0.01 | 91 | 1012.4 |
| 20260906021607 | 69 | 0 | 0.0 | 0.0 | 0.00 | 0.01 | 0.01 | 91 | 1012.3 |
| 20260906021058 | 69 | 0 | 0.0 | 0.0 | 0.00 | 0.01 | 0.01 | 90 | 1012.3 |
| 20260906020553 | 70 | 0 | 0.0 | 0.0 | 0.00 | 0.01 | 0.01 | 90 | 1012.3 |
| 20260906020108 | 70 | 0 | 0.0 | 0.0 | 0.00 | 0.01 | 0.01 | 90 | 1012.2 |
| 20260906015555 | 70 | 0 | 0.0 | 0.0 | 0.00 | 0.01 | 0.01 | 89 | 1012.0 |
| 20260906015053 | 70 | 0 | 0.0 | 0.0 | 0.00 | 0.01 | 0.01 | 89 | 1011.9 |
| 20260906014604 | 70 | 0 | 0.0 | 0.0 | 0.00 | 0.01 | 0.01 | 89 | 1011.9 |
| 20260906014053 | 71 | 0 | 0.0 | 0.0 | 0.00 | 0.01 | 0.01 | 88 | 1011.9 |
| 20260906013555 | 71 | 0 | 0.0 | 0.0 | 0.00 | 0.01 | 0.01 | 88 | 1011.8 |
| 20260906013107 | 71 | 0 | 0.0 | 0.0 | 0.00 | 0.01 | 0.01 | 87 | 1011.7 |
| 20260906012552 | 71 | 0 | 0.0 | 0.0 | 0.00 | 0.01 | 0.01 | 87 | 1011.7 |
| 20260906012055 | 71 | 0 | 0.0 | 0.0 | 0.00 | 0.01 | 0.01 | 85 | 1011.7 |
| 20260906011602 | 71 | 0 | 0.0 | 0.0 | 0.00 | 0.01 | 0.01 | 84 | 1011.8 |
| 20260906011054 | 71 | 0 | 0.0 | 0.0 | 0.00 | 0.01 | 0.01 | 84 | 1011.7 |
| 20260906010553 | 72 | 0 | 0.0 | 0.0 | 0.00 | 0.01 | 0.01 | 84 | 1011.7 |
| 20260906010100 | 72 | 0 | 0.0 | 0.0 | 0.00 | 0.01 | 0.01 | 84 | 1011.6 |
| 20260906005553 | 72 | 0 | 0.0 | 0.0 | 0.00 | 0.01 | 0.01 | 84 | 1011.6 |
| 20260906005054 | 72 | 0 | 0.0 | 0.0 | 0.00 | 0.01 | 0.01 | 85 | 1011.5 |
| 20260906004605 | 73 | 0 | 0.0 | 0.0 | 0.00 | 0.01 | 0.01 | 85 | 1011.5 |
| 20260906004053 | 73 | 0 | 0.0 | 0.0 | 0.00 | 0.01 | 0.01 | 85 | 1011.5 |
| 20260906003553 | 73 | 0 | 0.0 | 0.0 | 0.00 | 0.01 | 0.01 | 84 | 1011.5 |
| 20260906003108 | 73 | 0 | 0.0 | 0.0 | 0.00 | 0.01 | 0.01 | 84 | 1011.4 |
| 20260906002554 | 73 | 0 | 0.0 | 0.0 | 0.00 | 0.01 | 0.01 | 83 | 1011.5 |
| 20260906002057 | 73 | 0 | 0.0 | 0.0 | 0.00 | 0.01 | 0.01 | 83 | 1011.4 |
| 20260906001559 | 73 | 0 | 0.0 | 0.0 | 0.00 | 0.01 | 0.01 | 81 | 1011.3 |
| 20260906001059 | 73 | 0 | 0.0 | 0.0 | 0.00 | 0.01 | 0.01 | 82 | 1011.2 |
| 20260906000556 | 73 | 0 | 0.0 | 0.0 | 0.00 | 0.01 | 0.01 | 81 | 1011.1 |
| 20260906000112 | 73 | 0 | 0.0 | 0.0 | 0.00 | 0.01 | 0.01 | 81 | 1011.1 |
| 20260905235555 | 73 | 0 | 0.0 | 0.0 | 0.00 | 0.01 | 0.01 | 81 | 1011.1 |
| 20260905235054 | 74 | 0 | 0.0 | 0.0 | 0.00 | 0.01 | 0.01 | 80 | 1011.0 |
| 20260905234621 | 74 | 0 | 0.0 | 1.0 | 0.00 | 0.01 | 0.01 | 80 | 1010.9 |
| 20260905234053 | 74 | 0 | 0.0 | 1.0 | 0.00 | 0.01 | 0.01 | 80 | 1010.9 |
| 20260905233553 | 75 | 0 | 0.0 | 1.0 | 0.00 | 0.01 | 0.01 | 80 | 1010.9 |
| 20260905233109 | 75 | 0 | 0.0 | 0.0 | 0.00 | 0.01 | 0.01 | 80 | 1010.8 |
| 20260905232553 | 75 | 0 | 0.0 | 0.0 | 0.00 | 0.01 | 0.01 | 79 | 1010.8 |
| 20260905232055 | 75 | 0 | 0.0 | 0.0 | 0.00 | 0.01 | 0.01 | 79 | 1010.9 |
| 20260905231612 | 76 | 0 | 0.0 | 1.0 | 0.00 | 0.01 | 0.01 | 78 | 1010.9 |
| 20260905231053 | 76 | 0 | 0.0 | 1.0 | 0.00 | 0.01 | 0.01 | 78 | 1010.8 |
| 20260905230556 | 77 | 55 | 0.0 | 1.0 | 0.00 | 0.01 | 0.01 | 77 | 1010.8 |
| 20260905230109 | 77 | 0 | 0.0 | 1.0 | 0.00 | 0.01 | 0.01 | 77 | 1010.7 |
| 20260905225555 | 78 | 0 | 0.0 | 2.0 | 0.00 | 0.01 | 0.01 | 76 | 1010.8 |
| 20260905225055 | 78 | 0 | 0.0 | 2.0 | 0.00 | 0.01 | 0.01 | 72 | 1010.7 |
| 20260905224624 | 78 | 55 | 1.0 | 2.0 | 0.00 | 0.01 | 0.01 | 72 | 1010.7 |
| 20260905224055 | 78 | 0 | 1.0 | 2.0 | 0.00 | 0.01 | 0.01 | 72 | 1010.7 |
| 20260905223552 | 78 | 58 | 1.0 | 3.0 | 0.00 | 0.01 | 0.01 | 72 | 1010.6 |
| 20260905223107 | 78 | 58 | 1.0 | 5.0 | 0.00 | 0.01 | 0.01 | 71 | 1010.6 |
| 20260905222555 | 78 | 58 | 2.0 | 5.0 | 0.00 | 0.01 | 0.01 | 70 | 1010.6 |
| 20260905222053 | 79 | 72 | 1.0 | 2.0 | 0.00 | 0.01 | 0.01 | 71 | 1010.6 |
| 20260905221605 | 79 | 58 | 0.0 | 2.0 | 0.00 | 0.01 | 0.01 | 72 | 1010.6 |
| 20260905221058 | 79 | 0 | 0.0 | 3.0 | 0.00 | 0.01 | 0.01 | 72 | 1010.5 |
| 20260905220553 | 79 | 68 | 0.0 | 5.0 | 0.00 | 0.01 | 0.01 | 72 | 1010.4 |
| 20260905220118 | 79 | 89 | 1.0 | 5.0 | 0.00 | 0.01 | 0.01 | 71 | 1010.4 |
| 20260905215555 | 79 | 64 | 2.0 | 5.0 | 0.00 | 0.01 | 0.01 | 70 | 1010.4 |
| 20260905215055 | 78 | 68 | 1.0 | 3.0 | 0.00 | 0.01 | 0.01 | 72 | 1010.3 |
| 20260905214606 | 78 | 118 | 1.0 | 3.0 | 0.00 | 0.01 | 0.01 | 71 | 1010.2 |
| 20260905214054 | 78 | 57 | 1.0 | 2.0 | 0.00 | 0.01 | 0.01 | 73 | 1010.1 |
| 20260905213556 | 78 | 0 | 0.0 | 2.0 | 0.00 | 0.01 | 0.01 | 75 | 1010.1 |
| 20260905213106 | 78 | 0 | 0.0 | 2.0 | 0.00 | 0.01 | 0.01 | 74 | 1010.0 |
| 20260905212553 | 78 | 0 | 1.0 | 2.0 | 0.00 | 0.01 | 0.01 | 72 | 1010.1 |
| 20260905212056 | 78 | 327 | 1.0 | 6.0 | 0.00 | 0.01 | 0.01 | 72 | 1010.0 |
| 20260905211605 | 78 | 319 | 0.0 | 6.0 | 0.00 | 0.01 | 0.01 | 72 | 1009.9 |
| 20260905211055 | 78 | 0 | 1.0 | 6.0 | 0.00 | 0.01 | 0.01 | 73 | 1009.9 |
| 20260905210553 | 78 | 47 | 0.0 | 2.0 | 0.00 | 0.01 | 0.01 | 75 | 1010.0 |
| 20260905210109 | 78 | 330 | 0.0 | 3.0 | 0.00 | 0.01 | 0.01 | 75 | 1010.0 |
| 20260905205600 | 78 | 321 | 1.0 | 3.0 | 0.00 | 0.01 | 0.01 | 74 | 1010.0 |
| 20260905205053 | 78 | 75 | 1.0 | 3.0 | 0.00 | 0.01 | 0.01 | 76 | 1009.9 |
| 20260905204603 | 78 | 67 | 1.0 | 3.0 | 0.00 | 0.01 | 0.01 | 74 | 1009.8 |
| 20260905204054 | 78 | 0 | 0.0 | 0.0 | 0.00 | 0.01 | 0.01 | 74 | 1009.9 |
| 20260905203558 | 78 | 0 | 0.0 | 1.0 | 0.00 | 0.01 | 0.01 | 73 | 1010.0 |
| 20260905203117 | 78 | 0 | 0.0 | 3.0 | 0.00 | 0.01 | 0.01 | 72 | 1010.0 |
| 20260905202555 | 78 | 326 | 1.0 | 3.0 | 0.00 | 0.01 | 0.01 | 73 | 1009.9 |
| 20260905202055 | 78 | 42 | 0.0 | 3.0 | 0.00 | 0.01 | 0.01 | 72 | 1010.0 |
| 20260905201604 | 78 | 61 | 0.0 | 3.0 | 0.00 | 0.01 | 0.01 | 73 | 1010.0 |
| 20260905201055 | 78 | 69 | 0.0 | 4.0 | 0.00 | 0.01 | 0.01 | 71 | 1010.0 |
| 20260905200555 | 78 | 151 | 1.0 | 4.0 | 0.00 | 0.01 | 0.01 | 71 | 1010.0 |
| 20260905200112 | 78 | 319 | 1.0 | 3.0 | 0.00 | 0.01 | 0.01 | 71 | 1010.1 |
| 20260905195552 | 78 | 0 | 0.0 | 4.0 | 0.00 | 0.01 | 0.01 | 72 | 1010.1 |
| 20260905195052 | 78 | 198 | 1.0 | 4.0 | 0.00 | 0.01 | 0.01 | 70 | 1010.3 |
| 20260905194609 | 78 | 69 | 1.0 | 3.0 | 0.00 | 0.01 | 0.01 | 72 | 1010.3 |
| 20260905194055 | 78 | 15 | 1.0 | 4.0 | 0.00 | 0.01 | 0.01 | 71 | 1010.4 |
| 20260905193556 | 78 | 319 | 1.0 | 4.0 | 0.00 | 0.01 | 0.01 | 72 | 1010.5 |
| 20260905193109 | 77 | 289 | 0.0 | 3.0 | 0.00 | 0.01 | 0.01 | 72 | 1010.6 |
| 20260905192557 | 77 | 335 | 0.0 | 3.0 | 0.00 | 0.01 | 0.01 | 71 | 1010.7 |
| 20260905192055 | 77 | 352 | 0.0 | 3.0 | 0.00 | 0.01 | 0.01 | 71 | 1010.7 |
| 20260905191611 | 78 | 321 | 0.0 | 3.0 | 0.00 | 0.01 | 0.01 | 72 | 1010.8 |
| 20260905191054 | 78 | 317 | 1.0 | 2.0 | 0.00 | 0.01 | 0.01 | 73 | 1010.9 |
| 20260905190553 | 78 | 27 | 0.0 | 2.0 | 0.00 | 0.01 | 0.01 | 74 | 1010.9 |
| 20260905190104 | 78 | 0 | 0.0 | 3.0 | 0.00 | 0.01 | 0.01 | 73 | 1010.9 |
| 20260905185557 | 78 | 46 | 0.0 | 3.0 | 0.00 | 0.01 | 0.01 | 73 | 1011.0 |
| 20260905185054 | 78 | 43 | 0.0 | 3.0 | 0.00 | 0.01 | 0.01 | 73 | 1011.2 |
| 20260905184602 | 78 | 30 | 0.0 | 4.0 | 0.00 | 0.01 | 0.01 | 70 | 1011.2 |
| 20260905184056 | 78 | 290 | 1.0 | 4.0 | 0.00 | 0.01 | 0.01 | 73 | 1011.2 |
| 20260905183558 | 78 | 65 | 0.0 | 3.0 | 0.00 | 0.01 | 0.01 | 76 | 1011.0 |
| 20260905183102 | 77 | 0 | 0.0 | 3.0 | 0.00 | 0.01 | 0.01 | 73 | 1011.2 |
| 20260905182555 | 77 | 330 | 2.0 | 3.0 | 0.00 | 0.01 | 0.01 | 73 | 1011.3 |
| 20260905182054 | 77 | 274 | 1.0 | 4.0 | 0.00 | 0.01 | 0.01 | 73 | 1011.4 |
| 20260905181607 | 77 | 0 | 1.0 | 4.0 | 0.00 | 0.01 | 0.01 | 71 | 1011.5 |
| 20260905181055 | 77 | 3 | 1.0 | 3.0 | 0.00 | 0.01 | 0.01 | 73 | 1011.4 |
| 20260905180555 | 77 | 328 | 1.0 | 4.0 | 0.00 | 0.01 | 0.01 | 73 | 1011.4 |
| 20260905180105 | 77 | 323 | 1.0 | 4.0 | 0.00 | 0.01 | 0.01 | 73 | 1011.5 |
| 20260905175554 | 77 | 323 | 2.0 | 4.0 | 0.00 | 0.01 | 0.01 | 72 | 1011.4 |
| 20260905175055 | 77 | 322 | 2.0 | 4.0 | 0.00 | 0.01 | 0.01 | 73 | 1011.5 |
| 20260905174606 | 77 | 338 | 0.0 | 5.0 | 0.00 | 0.01 | 0.01 | 75 | 1011.5 |
| 20260905174054 | 77 | 47 | 2.0 | 5.0 | 0.00 | 0.01 | 0.01 | 75 | 1011.5 |
| 20260905173554 | 77 | 347 | 0.0 | 4.0 | 0.00 | 0.01 | 0.01 | 77 | 1011.4 |
| 20260905173105 | 77 | 53 | 1.0 | 4.0 | 0.00 | 0.01 | 0.01 | 76 | 1011.5 |
| 20260905172555 | 77 | 319 | 1.0 | 3.0 | 0.00 | 0.01 | 0.01 | 78 | 1011.5 |
| 20260905172054 | 77 | 15 | 1.0 | 3.0 | 0.00 | 0.01 | 0.01 | 76 | 1011.5 |
| 20260905171636 | 76 | 0 | 0.0 | 2.0 | 0.00 | 0.01 | 0.01 | 77 | 1011.5 |
| 20260905171054 | 76 | 326 | 0.0 | 2.0 | 0.00 | 0.01 | 0.01 | 78 | 1011.5 |
| 20260905170554 | 77 | 334 | 1.0 | 1.0 | 0.00 | 0.01 | 0.01 | 78 | 1011.6 |
| 20260905170106 | 77 | 326 | 0.0 | 1.0 | 0.00 | 0.01 | 0.01 | 79 | 1011.7 |
| 20260905165551 | 76 | 324 | 0.0 | 2.0 | 0.00 | 0.01 | 0.01 | 78 | 1011.7 |
| 20260905165054 | 76 | 0 | 1.0 | 2.0 | 0.00 | 0.01 | 0.01 | 76 | 1011.8 |
| 20260905164606 | 76 | 0 | 0.0 | 3.0 | 0.00 | 0.01 | 0.01 | 77 | 1011.8 |
| 20260905164055 | 76 | 0 | 1.0 | 3.0 | 0.00 | 0.01 | 0.01 | 76 | 1011.8 |
| 20260905163553 | 76 | 264 | 0.0 | 1.0 | 0.00 | 0.01 | 0.01 | 77 | 1012.0 |
| 20260905163105 | 76 | 262 | 0.0 | 1.0 | 0.00 | 0.01 | 0.01 | 78 | 1012.0 |
| 20260905162554 | 76 | 0 | 0.0 | 1.0 | 0.00 | 0.01 | 0.01 | 77 | 1012.0 |
| 20260905162055 | 76 | 0 | 0.0 | 3.0 | 0.00 | 0.01 | 0.01 | 76 | 1012.0 |
| 20260905161604 | 75 | 0 | 1.0 | 3.0 | 0.00 | 0.01 | 0.01 | 75 | 1012.1 |
| 20260905161053 | 76 | 105 | 0.0 | 1.0 | 0.00 | 0.01 | 0.01 | 75 | 1012.1 |
| 20260905160552 | 76 | 0 | 0.0 | 1.0 | 0.00 | 0.01 | 0.01 | 76 | 1012.2 |
| 20260905160110 | 76 | 0 | 0.0 | 1.0 | 0.00 | 0.01 | 0.01 | 78 | 1012.2 |
| 20260905155555 | 76 | 105 | 0.0 | 3.0 | 0.00 | 0.01 | 0.01 | 76 | 1012.2 |
| 20260905155054 | 76 | 105 | 1.0 | 5.0 | 0.00 | 0.01 | 0.01 | 76 | 1012.2 |
| 20260905154632 | 76 | 68 | 2.0 | 6.0 | 0.00 | 0.01 | 0.01 | 76 | 1012.2 |
| 20260905154055 | 76 | 53 | 3.0 | 6.0 | 0.00 | 0.01 | 0.01 | 75 | 1012.2 |
| 20260905153555 | 75 | 61 | 2.0 | 5.0 | 0.00 | 0.01 | 0.01 | 76 | 1012.2 |
| 20260905153135 | 75 | 323 | 2.0 | 5.0 | 0.00 | 0.01 | 0.01 | 78 | 1012.2 |
| 20260905152554 | 75 | 23 | 1.0 | 2.0 | 0.00 | 0.01 | 0.01 | 80 | 1012.3 |
| 20260905152054 | 75 | 19 | 1.0 | 2.0 | 0.00 | 0.01 | 0.01 | 79 | 1012.2 |
| 20260905151604 | 75 | 50 | 0.0 | 3.0 | 0.00 | 0.01 | 0.01 | 79 | 1012.2 |
| 20260905151053 | 75 | 60 | 1.0 | 3.0 | 0.00 | 0.01 | 0.01 | 79 | 1012.2 |
| 20260905150553 | 75 | 60 | 2.0 | 3.0 | 0.00 | 0.01 | 0.01 | 78 | 1012.2 |
| 20260905150106 | 75 | 68 | 1.0 | 4.0 | 0.00 | 0.01 | 0.01 | 79 | 1012.3 |
| 20260905145555 | 75 | 329 | 1.0 | 4.0 | 0.00 | 0.01 | 0.01 | 79 | 1012.3 |
| 20260905145055 | 75 | 75 | 1.0 | 4.0 | 0.00 | 0.01 | 0.01 | 81 | 1012.3 |
| 20260905144609 | 75 | 48 | 2.0 | 5.0 | 0.00 | 0.01 | 0.01 | 79 | 1012.2 |
| 20260905144058 | 75 | 63 | 1.0 | 5.0 | 0.00 | 0.01 | 0.01 | 79 | 1012.1 |
| 20260905143554 | 75 | 68 | 1.0 | 5.0 | 0.00 | 0.01 | 0.01 | 79 | 1012.1 |
| 20260905143107 | 75 | 352 | 1.0 | 4.0 | 0.00 | 0.01 | 0.01 | 80 | 1012.0 |
| 20260905142554 | 75 | 0 | 1.0 | 4.0 | 0.00 | 0.01 | 0.01 | 81 | 1011.9 |
| 20260905142055 | 75 | 63 | 2.0 | 4.0 | 0.00 | 0.01 | 0.01 | 81 | 1012.0 |
| 20260905141604 | 75 | 62 | 2.0 | 4.0 | 0.00 | 0.01 | 0.01 | 82 | 1011.9 |
| 20260905141053 | 75 | 55 | 1.0 | 5.0 | 0.00 | 0.01 | 0.01 | 82 | 1011.9 |
| 20260905140554 | 75 | 59 | 2.0 | 5.0 | 0.00 | 0.01 | 0.01 | 82 | 1011.8 |
| 20260905140103 | 75 | 340 | 3.0 | 5.0 | 0.00 | 0.01 | 0.01 | 81 | 1011.7 |
| 20260905135553 | 76 | 68 | 1.0 | 5.0 | 0.00 | 0.01 | 0.01 | 81 | 1011.8 |
| 20260905135057 | 75 | 45 | 1.0 | 4.0 | 0.00 | 0.01 | 0.01 | 81 | 1011.7 |
| 20260905134603 | 75 | 356 | 1.0 | 4.0 | 0.00 | 0.01 | 0.01 | 82 | 1011.6 |
| 20260905134057 | 75 | 58 | 1.0 | 6.0 | 0.00 | 0.01 | 0.01 | 81 | 1011.6 |
| 20260905133555 | 75 | 31 | 2.0 | 6.0 | 0.00 | 0.01 | 0.01 | 81 | 1011.5 |
| 20260905133102 | 75 | 51 | 4.0 | 6.0 | 0.00 | 0.01 | 0.01 | 80 | 1011.5 |
| 20260905132555 | 75 | 8 | 2.0 | 5.0 | 0.00 | 0.01 | 0.01 | 80 | 1011.5 |
| 20260905132052 | 75 | 49 | 1.0 | 5.0 | 0.00 | 0.01 | 0.01 | 84 | 1011.5 |
| 20260905131602 | 75 | 69 | 2.0 | 5.0 | 0.00 | 0.01 | 0.01 | 84 | 1011.5 |
| 20260905131055 | 75 | 48 | 2.0 | 5.0 | 0.00 | 0.01 | 0.01 | 86 | 1011.3 |
| 20260905130559 | 74 | 70 | 2.0 | 5.0 | 0.00 | 0.01 | 0.01 | 87 | 1011.3 |
| 20260905130059 | 74 | 66 | 1.0 | 4.0 | 0.00 | 0.01 | 0.01 | 87 | 1011.3 |